When you browse on this site, cookies collect data to enhance your experience and personalize the content and advertising you see.
Visit our Privacy Policy to learn more. By continuing to use the site, you agree to this use of cookies and data.
  • en France
  • Liste des pays
  • À 7 jours
  • Température de l'eau
  • Carte satellitaire
  • Carte météo
  • Widgets météo
  • user-avatar
    Se connecter

    Météo par heure à Caen

    Ce jour, 20 Mars, Mercredi

    Heure Température Précipitation Vent Pression Humidité
    00:00 +6°C° 0 mm 2 m/s 773 mmHg 94%
    01:00 +6°C° 0 mm 2 m/s 773 mmHg 94%
    02:00 +6°C° 0 mm 2 m/s 773 mmHg 94%
    03:00 +5°C° 0 mm 2 m/s 773 mmHg 94%
    04:00 +5°C° 0 mm 2 m/s 773 mmHg 94%
    05:00 +5°C° 0 mm 2 m/s 773 mmHg 95%
    06:00 +5°C° 0 mm 2 m/s 773 mmHg 95%
    07:00 +7°C° 0 mm 2 m/s 774 mmHg 91%
    08:00 +8°C° 0 mm 2 m/s 774 mmHg 87%
    09:00 +10°C° 0 mm 2 m/s 774 mmHg 84%
    10:00 +12°C° 0 mm 1 m/s 774 mmHg 78%
    11:00 +13°C° 0 mm 1 m/s 774 mmHg 72%
    12:00 +14°C° 0 mm 1 m/s 774 mmHg 67%
    13:00 +15°C° 0 mm 1 m/s 774 mmHg 67%
    14:00 +15°C° 0 mm 1 m/s 774 mmHg 68%
    15:00 +15°C° 0 mm 2 m/s 774 mmHg 68%
    16:00 +14°C° 0 mm 2 m/s 774 mmHg 74%
    17:00 +13°C° 0 mm 2 m/s 774 mmHg 80%
    18:00 +10°C° 0 mm 2 m/s 774 mmHg 85%
    19:00 +10°C° 0 mm 1 m/s 774 mmHg 87%
    20:00 +10°C° 0 mm 1 m/s 774 mmHg 88%
    21:00 +9°C° 0 mm 1 m/s 774 mmHg 89%
    22:00 +8°C° 0 mm 0 m/s 774 mmHg 89%
    23:00 +7°C° 0 mm 0 m/s 775 mmHg 90%

    Demain, 21 Mars, Jeudi

    Heure Température Précipitation Vent Pression Humidité
    00:00 +7°C° 0 mm 0 m/s 775 mmHg 90%
    01:00 +7°C° 0 mm 0 m/s 775 mmHg 90%
    02:00 +7°C° 0 mm 0 m/s 774 mmHg 91%
    03:00 +7°C° 0 mm 0 m/s 774 mmHg 91%
    04:00 +7°C° 0 mm 1 m/s 774 mmHg 91%
    05:00 +7°C° 0 mm 1 m/s 774 mmHg 91%
    06:00 +7°C° 0 mm 1 m/s 774 mmHg 91%
    07:00 +9°C° 0 mm 1 m/s 774 mmHg 87%
    08:00 +11°C° 0 mm 1 m/s 775 mmHg 82%
    09:00 +11°C° 0 mm 0 m/s 775 mmHg 78%
    10:00 +13°C° 0 mm 1 m/s 774 mmHg 74%
    11:00 +14°C° 0 mm 1 m/s 774 mmHg 71%
    12:00 +15°C° 0 mm 1 m/s 774 mmHg 68%
    13:00 +16°C° 0 mm 2 m/s 773 mmHg 68%
    14:00 +16°C° 0 mm 2 m/s 773 mmHg 69%
    15:00 +16°C° 0 mm 3 m/s 772 mmHg 70%
    16:00 +14°C° 0 mm 3 m/s 772 mmHg 77%
    17:00 +12°C° 0 mm 3 m/s 772 mmHg 83%
    18:00 +11°C° 0 mm 3 m/s 772 mmHg 89%
    19:00 +10°C° 0 mm 2 m/s 772 mmHg 91%
    20:00 +9°C° 0 mm 2 m/s 772 mmHg 92%
    21:00 +9°C° 0 mm 2 m/s 772 mmHg 94%
    22:00 +9°C° 0 mm 2 m/s 772 mmHg 94%
    23:00 +8°C° 0 mm 2 m/s 772 mmHg 94%

    Après-demain, 22 Mars, Vendredi

    Heure Température Précipitation Vent Pression Humidité
    00:00 +8°C° 0 mm 2 m/s 771 mmHg 93%
    01:00 +8°C° 0 mm 2 m/s 771 mmHg 92%
    02:00 +7°C° 0 mm 2 m/s 771 mmHg 91%
    03:00 +8°C° 0 mm 1 m/s 770 mmHg 90%
    04:00 +8°C° 0 mm 1 m/s 770 mmHg 89%
    05:00 +7°C° 0 mm 1 m/s 770 mmHg 88%
    06:00 +7°C° 0 mm 1 m/s 770 mmHg 87%
    07:00 +9°C° 0 mm 1 m/s 769 mmHg 81%
    08:00 +10°C° 0 mm 2 m/s 769 mmHg 76%
    09:00 +12°C° 0 mm 2 m/s 769 mmHg 70%
    10:00 +14°C° 0 mm 2 m/s 769 mmHg 65%
    11:00 +15°C° 0 mm 2 m/s 769 mmHg 60%
    12:00 +16°C° 0 mm 1 m/s 768 mmHg 54%
    13:00 +18°C° 0 mm 1 m/s 768 mmHg 54%
    14:00 +18°C° 0 mm 1 m/s 768 mmHg 53%
    15:00 +19°C° 0 mm 1 m/s 767 mmHg 53%
    16:00 +16°C° 0 mm 1 m/s 767 mmHg 60%
    17:00 +14°C° 0 mm 1 m/s 767 mmHg 67%
    18:00 +13°C° 0 mm 1 m/s 767 mmHg 74%
    19:00 +12°C° 0 mm 1 m/s 768 mmHg 76%
    20:00 +12°C° 0 mm 1 m/s 768 mmHg 78%
    21:00 +11°C° 0 mm 1 m/s 769 mmHg 80%
    22:00 +10°C° 0 mm 1 m/s 769 mmHg 82%
    23:00 +8°C° 0 mm 0 m/s 769 mmHg 84%

    23 Mars, Samedi

    Heure Température Précipitation Vent Pression Humidité
    00:00 +7°C° 0 mm 0 m/s 769 mmHg 86%
    01:00 +7°C° 0 mm 0 m/s 769 mmHg 87%
    02:00 +8°C° 0 mm 1 m/s 769 mmHg 88%
    03:00 +8°C° 0 mm 1 m/s 769 mmHg 89%
    04:00 +7°C° 0 mm 1 m/s 769 mmHg 89%
    05:00 +6°C° 0 mm 0 m/s 769 mmHg 90%
    06:00 +6°C° 0 mm 0 m/s 769 mmHg 90%
    07:00 +8°C° 0 mm 0 m/s 769 mmHg 85%
    08:00 +10°C° 0 mm 0 m/s 769 mmHg 80%
    09:00 +12°C° 0 mm 0 m/s 769 mmHg 75%
    10:00 +13°C° 0 mm 1 m/s 769 mmHg 73%
    11:00 +14°C° 0 mm 1 m/s 769 mmHg 70%
    12:00 +15°C° 0 mm 2 m/s 769 mmHg 68%
    13:00 +15°C° 0 mm 2 m/s 769 mmHg 71%
    14:00 +15°C° 0 mm 2 m/s 768 mmHg 74%
    15:00 +14°C° 0 mm 3 m/s 768 mmHg 76%
    16:00 +13°C° 0 mm 3 m/s 768 mmHg 81%
    17:00 +12°C° 0 mm 3 m/s 768 mmHg 85%
    18:00 +11°C° 0 mm 3 m/s 768 mmHg 90%
    19:00 +10°C° 0 mm 3 m/s 768 mmHg 92%
    20:00 +10°C° 0 mm 3 m/s 769 mmHg 94%
    21:00 +9°C° 0 mm 3 m/s 769 mmHg 96%
    22:00 +9°C° 0 mm 2 m/s 769 mmHg 96%
    23:00 +9°C° 0 mm 2 m/s 769 mmHg 96%

    24 Mars, Dimanche

    Heure Température Précipitation Vent Pression Humidité
    00:00 +8°C° 0 mm 2 m/s 768 mmHg 97%
    01:00 +8°C° 0 mm 2 m/s 768 mmHg 96%
    02:00 +8°C° 0 mm 2 m/s 768 mmHg 96%
    03:00 +8°C° 0 mm 2 m/s 768 mmHg 95%
    04:00 +8°C° 0 mm 2 m/s 769 mmHg 95%
    05:00 +8°C° 0 mm 3 m/s 769 mmHg 94%
    06:00 +9°C° 0 mm 3 m/s 769 mmHg 93%
    07:00 +9°C° 0 mm 3 m/s 770 mmHg 92%
    08:00 +9°C° 0 mm 3 m/s 770 mmHg 90%
    09:00 +9°C° 0 mm 3 m/s 771 mmHg 89%
    10:00 +10°C° 0 mm 4 m/s 771 mmHg 87%
    11:00 +10°C° 0 mm 4 m/s 771 mmHg 86%
    12:00 +10°C° 0 mm 4 m/s 771 mmHg 85%
    13:00 +10°C° 0 mm 4 m/s 771 mmHg 83%
    14:00 +10°C° 0 mm 4 m/s 771 mmHg 81%
    15:00 +11°C° 0 mm 4 m/s 771 mmHg 79%
    16:00 +10°C° 0 mm 4 m/s 771 mmHg 81%
    17:00 +9°C° 0 mm 3 m/s 772 mmHg 83%
    18:00 +8°C° 0 mm 3 m/s 772 mmHg 85%
    19:00 +7°C° 0 mm 3 m/s 772 mmHg 85%
    20:00 +7°C° 0 mm 3 m/s 773 mmHg 85%
    21:00 +6°C° 0 mm 2 m/s 774 mmHg 85%
    22:00 +5°C° 0 mm 3 m/s 774 mmHg 84%
    23:00 +5°C° 0 mm 3 m/s 774 mmHg 84%

    25 Mars, Lundi

    Heure Température Précipitation Vent Pression Humidité
    00:00 +5°C° 0 mm 3 m/s 774 mmHg 84%
    01:00 +5°C° 0 mm 3 m/s 774 mmHg 85%
    02:00 +5°C° 0 mm 3 m/s 774 mmHg 85%
    03:00 +5°C° 0 mm 3 m/s 774 mmHg 86%
    04:00 +5°C° 0 mm 3 m/s 774 mmHg 86%
    05:00 +5°C° 0 mm 3 m/s 774 mmHg 86%
    06:00 +5°C° 0 mm 3 m/s 775 mmHg 87%
    07:00 +7°C° 0 mm 3 m/s 775 mmHg 83%
    08:00 +7°C° 0 mm 4 m/s 775 mmHg 79%
    09:00 +10°C° 0 mm 4 m/s 776 mmHg 75%
    10:00 +9°C° 0 mm 5 m/s 776 mmHg 73%
    11:00 +10°C° 0 mm 5 m/s 776 mmHg 71%
    12:00 +10°C° 0 mm 5 m/s 776 mmHg 69%
    13:00 +10°C° 0 mm 5 m/s 775 mmHg 68%
    14:00 +10°C° 0 mm 5 m/s 775 mmHg 67%
    15:00 +10°C° 0 mm 6 m/s 775 mmHg 67%
    16:00 +8°C° 0 mm 5 m/s 775 mmHg 69%
    17:00 +7°C° 0 mm 5 m/s 775 mmHg 72%
    18:00 +6°C° 0 mm 4 m/s 776 mmHg 75%
    19:00 +5°C° 0 mm 4 m/s 776 mmHg 76%
    20:00 +5°C° 0 mm 4 m/s 777 mmHg 77%
    21:00 +4°C° 0 mm 4 m/s 777 mmHg 78%
    22:00 +4°C° 0 mm 4 m/s 777 mmHg 78%
    23:00 +3°C° 0 mm 3 m/s 777 mmHg 78%
    Voir plus